Weather History for Caumont Avignon, France

Change the Weather History Date:

Tuesday, March 11, 2014

  Actual Average Record
Temperature  
Mean Temperature 48 °F -  
Max Temperature 62 °F - - ()
Min Temperature 35 °F - - ()
Degree Days  
Heating Degree Days 16    
Moisture  
Dew Point 40 °F    
Average Humidity 77    
Maximum Humidity 100    
Minimum Humidity 48    
Precipitation  
Precipitation 0.00 in - - ()
Sea Level Pressure  
Sea Level Pressure 30.18 in    
Wind  
Wind Speed 3 mph ()    
Max Wind Speed 5 mph    
Max Gust Speed -    
Visibility 6.1 miles    
Events      
T = Trace of Precipitation, MM = Missing Value Source: Averaged Metar Reports

Daily Weather History Graph

Daily Weather History Graph

Search for Another Location

Airport:

Trip Planner

Search our weather history database for the weather conditions in past years. The results will help you decide how hot, cold, wet, or windy it might be!

Date:

Astronomy

Mar. 11, 2014 Rise Set
Actual Time 7:00 AM CET 6:41 PM CET
Civil Twilight 6:31 AM CET 7:10 PM CET
Nautical Twilight 5:58 AM CET 7:43 PM CET
Astronomical Twilight 5:24 AM CET 8:17 PM CET
Moon 1:56 PM CET (3/11) 3:50 AM CET (3/11)
Length of Visible Light 12h 38m
Length of Day
11h 41m
Waxing Gibbous, 76% of the Moon is Illuminated
Mar 11
Waxing Gibbous
Mar 16
Full
Mar 24
Last Quarter
Mar 30
New
Apr 7
First Quarter

Hourly Weather History & Observations

Time (CET) Temp. Dew Point Humidity Pressure Visibility Wind Dir Wind Speed Gust Speed Precip Events Conditions
12:00 AM 42.8 °F 39.2 °F 87% 30.15 in 6.2 mi North - - N/A   Unknown
12:30 AM 42.8 °F 39.2 °F 87% 30.15 in 6.2 mi North - - N/A   Unknown
1:00 AM 42.8 °F 39.2 °F 87% 30.15 in 6.2 mi North - - N/A   Unknown
1:30 AM 42.8 °F 39.2 °F 87% 30.15 in 6.2 mi North - - N/A   Unknown
2:00 AM 41.0 °F 37.4 °F 87% 30.15 in 6.2 mi North - - N/A   Unknown
2:30 AM 39.2 °F 37.4 °F 93% 30.15 in 6.2 mi North - - N/A   Unknown
3:00 AM 39.2 °F 37.4 °F 93% 30.15 in 6.2 mi North - - N/A   Unknown
3:30 AM 39.2 °F 37.4 °F 93% 30.15 in 6.2 mi North - - N/A   Unknown
4:00 AM 41.0 °F 37.4 °F 87% 30.15 in 6.2 mi North - - N/A   Unknown
4:30 AM 39.2 °F 35.6 °F 87% 30.15 in 6.2 mi North - - N/A   Unknown
5:00 AM 39.2 °F 35.6 °F 87% 30.15 in 6.2 mi North - - N/A   Unknown
5:30 AM 37.4 °F 35.6 °F 93% 30.15 in 5.0 mi North - - N/A   Unknown
6:00 AM 35.6 °F 33.8 °F 93% 30.15 in 5.6 mi North - - N/A   Unknown
6:30 AM 37.4 °F 37.4 °F 100% 30.15 in 4.3 mi North - - N/A   Unknown
7:00 AM 37.4 °F 35.6 °F 93% 30.15 in 6.2 mi North - - N/A   Unknown
7:30 AM 37.4 °F 35.6 °F 93% 30.15 in 6.2 mi North - - N/A   Unknown
8:00 AM 39.2 °F 37.4 °F 93% 30.15 in 6.2 mi North - - N/A   Unknown
8:30 AM 42.8 °F 41.0 °F 93% 30.15 in 6.2 mi North - - N/A   Unknown
9:00 AM 44.6 °F 39.2 °F 81% 30.18 in 6.2 mi North - - N/A   Unknown
9:30 AM 46.4 °F 39.2 °F 76% 30.18 in 6.2 mi North - - N/A   Unknown
10:00 AM 46.4 °F 41.0 °F 81% 30.18 in 6.2 mi North - - N/A   Unknown
10:30 AM 50.0 °F 42.8 °F 76% 30.18 in 6.2 mi North - - N/A   Unknown
11:00 AM 53.6 °F 42.8 °F 67% 30.18 in 6.2 mi North - - N/A   Unknown
11:30 AM 55.4 °F 42.8 °F 63% 30.18 in 6.2 mi North - - N/A   Unknown
12:00 PM 55.4 °F 41.0 °F 58% 30.18 in 6.2 mi North - - N/A   Unknown
12:30 PM 57.2 °F 42.8 °F 59% 30.18 in 6.2 mi North - - N/A   Unknown
1:00 PM 59.0 °F 42.8 °F 55% 30.18 in 6.2 mi North - - N/A   Unknown
1:30 PM 59.0 °F 42.8 °F 55% 30.18 in 6.2 mi North - - N/A   Unknown
2:00 PM 60.8 °F 42.8 °F 52% 30.15 in 6.2 mi North - - N/A   Unknown
2:30 PM 60.8 °F 42.8 °F 52% 30.15 in 6.2 mi North - - N/A   Unknown
3:00 PM 60.8 °F 42.8 °F 52% 30.15 in 6.2 mi North - - N/A   Unknown
3:30 PM 62.6 °F 42.8 °F 48% 30.15 in 6.2 mi Variable 3.5 mph - N/A   Unknown
4:00 PM 62.6 °F 42.8 °F 48% 30.15 in 6.2 mi Variable 3.5 mph - N/A   Unknown
4:30 PM 62.6 °F 44.6 °F 52% 30.15 in 6.2 mi WSW 4.6 mph - N/A   Unknown
5:00 PM 60.8 °F 42.8 °F 52% 30.18 in 6.2 mi Variable 3.5 mph - N/A   Unknown
5:30 PM 59.0 °F 44.6 °F 59% 30.18 in 6.2 mi SW 4.6 mph - N/A   Unknown
6:00 PM 57.2 °F 44.6 °F 63% 30.18 in 6.2 mi SW 4.6 mph - N/A   Unknown
6:30 PM 55.4 °F 44.6 °F 67% 30.21 in 6.2 mi SW 3.5 mph - N/A   Unknown
7:00 PM 51.8 °F 42.8 °F 71% 30.21 in 6.2 mi WSW 3.5 mph - N/A   Unknown
7:30 PM 50.0 °F 44.6 °F 82% 30.24 in 6.2 mi ESE 1.2 mph - N/A   Unknown
8:00 PM 48.2 °F 42.8 °F 82% 30.24 in 6.2 mi Calm Calm - N/A   Unknown
8:30 PM 48.2 °F 42.8 °F 82% 30.24 in - Calm Calm - N/A   Unknown
9:00 PM 46.4 °F 41.0 °F 81% 30.24 in - SE 2.3 mph - N/A   Unknown
9:30 PM 46.4 °F 42.8 °F 87% 30.27 in - SE 2.3 mph - N/A   Unknown
10:00 PM 44.6 °F 41.0 °F 87% 30.27 in - SE 2.3 mph - N/A   Unknown
10:30 PM 42.8 °F 41.0 °F 93% 30.27 in - ESE 2.3 mph - N/A   Unknown
11:00 PM 42.8 °F 41.0 °F 93% 30.30 in - East 1.2 mph - N/A   Unknown
11:30 PM 41.0 °F 39.2 °F 93% 30.30 in - SE 2.3 mph - N/A   Unknown